Wind_Speed
4 5 4 5 5 5 6 7 8 8 9 8 9 9 9 9 10 10 10 10 10 11 11 11 12 12 12 13 14 14 14 14 14 14 15 15 14 15 16 16 16 16 17
6 6 6 6 6 6 7 8 9 10 10 10 10 10 10 10 11 12 11 11 12 13 12 12 13 13 13 14 15 15 15 15 15 15 16 16 16 16 16 16 17 17 17
8 8 8 8 8 9 9 10 10 11 11 12 12 12 12 12 13 13 13 14 14 14 14 14 14 15 15 15 15 15 15 15 15 16 16 17 17 17 17 18 19 19 19
11 10 10 11 11 11 11 12 12 13 13 14 13 14 14 14 14 14 14 15 15 15 15 16 16 16 16 16 16 16 16 16 16 16 17 17 18 18 19 19 19 20 20
12 12 12 13 13 14 14 15 15 15 15 15 15 16 17 17 17 17 16 16 16 17 17 17 18 18 18 18 18 18 18 18 17 17 17 18 19 20 20 20 20 21 21
14 15 14 14 15 16 16 17 17 17 17 17 17 18 18 18 19 19 19 18 18 18 19 18 19 19 19 19 19 19 19 19 18 18 19 19 20 20 21 21 21 21 22
17 17 17 17 18 18 19 19 20 20 20 19 19 19 19 19 20 20 20 21 21 21 21 21 20 20 20 20 21 20 20 21 20 20 21 21 21 21 21 22 22 22 22
19 20 20 20 21 21 20 21 21 22 21 20 20 20 21 21 22 22 22 23 23 23 22 22 22 22 22 23 23 23 22 22 23 22 22 22 22 22 23 23 23 23 23
21 21 22 23 23 23 23 23 23 23 23 22 22 22 22 23 24 25 25 25 24 24 24 24 24 24 24 25 24 24 24 24 24 24 24 24 24 24 23 23 23 23 23
24 24 24 25 25 25 24 25 25 25 25 24 24 24 25 25 26 26 26 25 25 26 26 26 25 25 25 25 25 25 25 26 26 26 25 24 25 25 24 24 24 25 25
26 26 26 25 26 26 27 27 28 28 27 26 26 26 27 28 29 28 28 28 28 28 28 28 27 26 26 26 27 27 27 27 27 27 26 26 25 25 25 26 26 26 26
29 28 27 26 27 28 29 29 30 30 29 28 28 29 29 30 30 30 30 30 30 30 29 29 29 28 28 28 29 29 29 28 28 27 27 27 27 27 27 28 28 27 28
30 31 31 30 30 30 30 30 31 31 31 30 31 31 31 31 31 31 31 31 31 31 30 30 29 30 29 29 29 30 29 29 29 29 29 29 29 29 29 29 29 30 30
32 32 32 31 31 31 32 32 31 31 32 32 33 33 33 32 32 32 31 31 31 31 31 30 30 30 30 31 31 31 31 31 31 31 31 31 31 31 30 30 30 31 31
32 32 33 32 31 32 33 33 33 33 34 34 35 35 34 33 33 32 32 32 31 32 32 32 32 31 32 32 32 32 33 33 32 32 32 32 32 32 32 32 32 32 32
34 34 34 34 34 34 34 34 35 35 36 35 34 34 34 34 33 33 33 33 33 33 33 33 33 33 33 33 33 33 34 34 33 33 33 33 33 33 33 33 33 32 32
35 36 36 35 35 36 36 36 36 36 36 35 35 35 35 35 34 34 34 34 34 34 34 34 34 34 34 34 34 34 34 34 34 35 35 34 34 34 33 33 32 32 32
35 36 36 37 37 37 37 37 37 37 36 36 36 36 36 35 35 35 35 34 34 34 34 34 34 33 33 34 34 35 34 34 34 34 35 35 35 34 33 33 32 32 32
35 35 36 37 37 37 37 38 38 37 36 35 35 35 35 35 35 35 35 35 34 34 34 35 34 34 34 34 34 34 34 34 34 35 35 35 35 35 34 33 32 32 32
37 35 36 37 38 38 39 38 37 37 37 36 36 35 35 35 35 35 36 35 35 35 35 35 34 34 34 34 34 34 34 35 34 35 35 35 34 33 33 33 32 32 32
36 36 36 37 38 38 38 36 36 37 37 37 36 36 35 35 34 34 34 34 34 34 35 34 34 33 33 33 33 33 33 33 33 33 34 34 34 33 33 32 32 32 31
35 35 36 36 36 35 35 34 34 34 35 35 35 34 34 34 34 34 34 35 35 35 34 34 33 33 33 33 32 32 32 33 33 33 34 34 34 34 33 32 32 32 31
34 34 34 34 34 34 34 34 33 33 33 32 32 33 33 33 34 34 35 35 35 35 35 34 34 34 34 34 33 33 32 32 33 33 33 34 34 33 33 33 33 32 32
33 32 33 33 34 34 33 33 32 32 31 30 31 31 32 32 33 33 33 34 34 34 34 34 34 34 34 34 34 34 33 34 34 34 34 34 34 34 33 33 32 32 31
31 31 31 32 32 32 32 32 31 31 31 30 30 30 31 31 32 32 33 33 33 33 34 34 33 33 34 34 34 34 34 34 34 33 33 34 34 34 33 32 31 31 31
30 30 31 31 31 30 30 30 30 30 30 30 30 30 31 31 32 32 33 33 33 33 33 33 33 32 33 33 34 34 34 34 34 33 32 33 34 33 33 32 32 32 31
Wind_Direction
285 291 290 294 301 314 318 318 318 318 318 317 313 316 315 313 309 311 312 314 312 311 309 310 308 308 310 311 309 306 306 305 304 302 304 308 308 308 310 309 310 310 311
282 287 289 289 292 300 303 306 309 311 310 307 307 308 307 307 305 303 303 306 307 306 306 307 311 307 306 309 308 306 305 304 303 304 306 305 308 309 308 308 308 310 311
281 287 289 292 291 294 298 299 299 301 303 302 300 302 304 304 302 299 299 301 301 302 303 302 304 306 304 305 305 306 307 306 307 307 305 303 306 309 311 308 307 307 309
278 281 283 285 286 288 292 293 295 298 298 298 297 297 297 297 297 297 297 297 298 299 300 301 301 303 303 305 304 305 308 309 309 307 306 305 305 306 308 309 307 306 306
274 275 280 283 284 285 287 289 292 295 295 294 292 292 293 293 293 293 293 294 296 298 298 298 298 300 303 305 303 303 305 306 307 306 306 304 305 305 306 306 306 306 306
274 276 278 280 283 285 286 288 290 292 292 291 291 291 292 292 293 292 291 292 293 295 295 296 297 298 301 303 302 302 302 303 304 304 304 304 304 304 304 304 304 306 306
275 277 279 279 280 284 285 286 287 288 289 289 288 289 289 291 294 295 292 290 290 290 292 293 295 296 298 300 301 300 299 299 301 303 304 303 303 302 302 303 303 304 305
278 278 279 281 281 281 283 285 287 288 287 286 286 285 287 289 292 294 294 291 288 287 288 290 290 292 295 297 298 297 297 298 299 299 300 299 299 300 301 301 302 302 303
278 279 279 279 280 281 282 283 285 287 287 286 285 286 287 290 290 292 292 291 287 287 289 289 288 290 292 294 294 294 295 297 299 298 298 297 298 298 299 301 301 300 301
275 277 278 278 280 280 281 282 282 282 284 285 285 286 288 289 290 292 292 289 287 287 288 288 288 288 289 290 290 290 292 294 295 295 296 297 296 296 296 298 298 298 299
276 275 274 276 279 280 280 280 280 280 281 283 285 286 287 288 289 290 289 288 287 285 285 286 287 287 287 287 288 289 290 291 292 294 294 296 296 294 294 296 297 297 298
275 276 273 274 277 279 279 279 279 279 279 281 283 284 285 286 287 287 287 286 285 285 285 285 285 285 286 287 287 288 289 289 289 292 294 294 294 293 293 294 296 297 296
275 275 276 276 278 278 279 279 279 278 278 280 282 283 283 283 284 284 284 284 284 284 284 284 284 285 285 286 287 287 288 288 289 290 292 292 293 293 293 294 295 296 295
275 276 278 278 278 277 279 280 280 278 278 280 282 282 282 282 283 282 281 281 282 282 283 284 284 284 284 286 287 286 286 287 287 289 290 291 291 292 292 293 294 295 295
274 276 278 279 277 277 280 282 281 279 279 282 283 282 283 283 283 282 281 280 281 282 282 282 282 283 284 284 285 285 284 285 286 288 289 290 291 291 291 291 292 292 293
275 276 277 277 278 279 279 279 280 279 281 282 283 283 283 283 282 281 281 280 280 280 281 282 281 281 282 282 283 283 284 285 285 286 287 288 289 290 291 291 291 291 291
275 275 276 277 278 279 279 278 278 279 280 281 282 284 284 282 280 280 280 280 280 280 281 281 281 282 282 281 282 283 283 283 284 285 285 287 287 287 288 290 290 291 290
275 275 276 278 279 279 278 278 278 279 279 281 281 283 284 282 281 280 279 279 279 280 281 282 283 283 283 283 284 284 284 284 285 285 285 286 286 286 286 287 288 288 288
277 276 278 279 280 281 281 280 279 278 279 280 281 282 282 280 280 280 279 279 279 280 281 282 283 284 284 284 285 285 285 284 284 284 284 285 285 285 285 286 286 287 288
278 279 280 281 283 282 282 281 280 279 280 280 280 282 282 280 279 279 280 281 280 280 282 281 281 281 281 283 284 285 284 284 284 284 285 285 285 284 284 285 285 285 287
279 279 280 282 284 284 284 282 281 281 280 279 280 280 280 279 278 278 280 281 282 282 282 280 278 279 280 282 283 284 284 284 285 284 285 285 285 283 283 283 283 283 285
281 280 281 283 284 284 283 282 281 281 281 280 279 278 278 278 278 278 279 280 281 282 281 279 279 280 281 282 284 285 285 286 285 284 284 284 284 283 283 282 283 283 283
282 282 281 282 283 284 283 283 282 282 282 281 280 278 277 278 277 278 279 280 281 280 279 278 278 280 281 281 283 284 284 285 285 286 284 284 285 284 283 282 282 283 282
284 283 283 283 283 283 282 282 282 282 282 281 281 281 280 279 279 279 279 280 281 281 280 280 280 280 280 282 284 284 284 283 284 284 284 286 286 284 283 283 283 283 283
283 284 285 286 284 282 280 281 281 280 280 281 281 281 281 280 279 279 280 280 281 281 281 280 280 281 281 282 283 284 283 283 284 285 286 286 286 285 284 284 283 282 282
282 284 286 286 285 283 281 280 281 281 281 281 282 281 282 282 282 281 280 280 280 281 281 281 281 281 282 282 282 282 283 283 285 285 285 285 286 286 285 284 283 283 283
Height
5890 5890 5889 5889 5889 5888 5888 5887 5886 5885 5884 5883 5883 5882 5880 5879 5878 5877 5876 5875 5873 5872 5871 5869 5868 5867 5865 5863 5861 5860 5858 5857 5855 5854 5852 5850 5848 5847 5845 5843 5841 5839 5837
5889 5888 5887 5887 5887 5887 5886 5885 5885 5884 5883 5882 5881 5880 5879 5877 5876 5875 5874 5873 5871 5870 5868 5867 5865 5864 5863 5861 5859 5857 5855 5853 5852 5850 5849 5847 5845 5843 5841 5840 5838 5836 5834
5887 5886 5886 5886 5885 5884 5884 5883 5883 5882 5881 5880 5878 5877 5876 5875 5874 5872 5871 5870 5868 5867 5865 5864 5862 5861 5859 5857 5855 5853 5852 5850 5848 5847 5845 5843 5841 5839 5838 5836 5834 5832 5829
5884 5884 5883 5883 5882 5882 5881 5880 5880 5879 5878 5877 5876 5874 5873 5872 5870 5869 5868 5866 5865 5864 5862 5861 5859 5857 5856 5854 5852 5850 5848 5846 5845 5843 5841 5839 5837 5836 5834 5831 5829 5827 5825
5880 5880 5880 5880 5879 5878 5877 5877 5876 5875 5874 5873 5872 5871 5869 5868 5866 5865 5864 5863 5861 5860 5858 5857 5855 5854 5852 5850 5848 5846 5844 5842 5841 5839 5837 5835 5833 5831 5829 5827 5825 5822 5820
5876 5876 5876 5876 5875 5874 5873 5873 5872 5871 5870 5869 5867 5866 5865 5864 5862 5861 5860 5859 5857 5856 5854 5852 5851 5849 5847 5845 5844 5842 5840 5838 5836 5834 5833 5831 5828 5826 5824 5822 5820 5817 5815
5871 5871 5871 5871 5870 5870 5869 5868 5867 5866 5865 5864 5862 5861 5860 5859 5858 5856 5855 5853 5852 5851 5849 5848 5846 5844 5842 5841 5839 5837 5835 5833 5832 5830 5828 5825 5823 5821 5819 5816 5814 5812 5810
5866 5866 5865 5865 5864 5864 5863 5862 5861 5860 5859 5858 5856 5855 5855 5853 5852 5851 5849 5848 5846 5844 5843 5842 5840 5839 5837 5835 5833 5832 5830 5828 5826 5824 5822 5820 5817 5815 5813 5811 5808 5806 5804
5860 5860 5859 5858 5858 5857 5856 5856 5855 5854 5853 5852 5850 5849 5848 5847 5846 5844 5842 5841 5839 5838 5837 5835 5834 5832 5831 5829 5827 5826 5824 5822 5820 5817 5815 5813 5811 5809 5807 5805 5802 5800 5798
5854 5853 5852 5851 5851 5850 5849 5848 5847 5846 5846 5845 5844 5842 5841 5840 5839 5837 5835 5834 5832 5831 5830 5828 5826 5825 5824 5822 5820 5819 5817 5815 5813 5811 5809 5807 5804 5802 5800 5798 5796 5794 5791
5846 5845 5845 5844 5843 5843 5842 5841 5840 5839 5838 5837 5836 5835 5834 5832 5831 5830 5828 5826 5825 5823 5822 5820 5819 5817 5816 5814 5813 5811 5810 5808 5806 5804 5802 5800 5798 5795 5793 5791 5788 5786 5784
5838 5837 5837 5836 5835 5834 5834 5833 5832 5831 5830 5829 5828 5827 5826 5824 5823 5821 5819 5818 5816 5815 5813 5812 5811 5809 5808 5807 5805 5804 5802 5800 5798 5797 5795 5793 5790 5788 5786 5783 5781 5778 5776
5831 5829 5828 5827 5826 5826 5825 5824 5823 5822 5821 5820 5819 5818 5817 5815 5814 5812 5810 5809 5807 5805 5804 5803 5802 5801 5800 5798 5797 5795 5794 5792 5790 5789 5787 5785 5783 5780 5778 5776 5773 5771 5769
5822 5821 5820 5818 5818 5817 5816 5815 5813 5812 5812 5811 5809 5808 5807 5805 5804 5802 5801 5799 5798 5796 5795 5794 5793 5792 5791 5790 5788 5786 5785 5783 5782 5780 5778 5776 5774 5772 5770 5767 5765 5763 5761
5812 5811 5811 5809 5809 5808 5807 5805 5804 5803 5802 5801 5799 5798 5797 5796 5794 5792 5791 5790 5789 5787 5786 5785 5784 5783 5782 5780 5779 5777 5776 5774 5773 5771 5769 5767 5765 5763 5761 5759 5757 5755 5753
5802 5802 5801 5800 5799 5798 5797 5796 5794 5793 5792 5790 5789 5788 5786 5785 5784 5782 5781 5780 5779 5778 5777 5776 5775 5773 5772 5771 5769 5768 5766 5765 5763 5762 5760 5758 5756 5754 5752 5750 5748 5746 5744
5793 5792 5791 5790 5789 5787 5786 5785 5784 5783 5781 5780 5778 5777 5775 5774 5773 5772 5770 5769 5768 5767 5766 5766 5764 5763 5762 5761 5759 5758 5757 5755 5753 5751 5750 5748 5746 5744 5742 5740 5738 5736 5735
5782 5781 5780 5779 5778 5776 5775 5774 5773 5772 5771 5769 5768 5766 5764 5762 5761 5760 5759 5758 5757 5757 5756 5755 5754 5753 5751 5750 5749 5748 5746 5745 5743 5741 5740 5738 5736 5734 5733 5731 5729 5727 5725
5771 5770 5770 5768 5767 5765 5764 5763 5762 5761 5760 5759 5757 5755 5753 5751 5750 5749 5748 5747 5747 5746 5745 5744 5743 5742 5741 5740 5739 5737 5736 5734 5732 5731 5729 5728 5726 5724 5723 5721 5720 5718 5716
5761 5760 5759 5757 5756 5754 5753 5751 5750 5749 5748 5747 5746 5744 5742 5740 5739 5738 5737 5736 5736 5735 5734 5734 5733 5732 5731 5730 5728 5727 5725 5724 5722 5721 5719 5717 5716 5714 5713 5712 5710 5708 5706
5750 5749 5748 5746 5744 5743 5741 5739 5738 5737 5736 5735 5734 5733 5731 5730 5728 5727 5726 5725 5725 5725 5724 5723 5722 5721 5721 5720 5718 5716 5715 5713 5712 5710 5709 5707 5706 5704 5703 5702 5700 5699 5697
5739 5738 5737 5735 5734 5732 5730 5729 5727 5726 5724 5723 5722 5721 5720 5719 5718 5717 5717 5716 5715 5714 5713 5713 5712 5711 5711 5709 5708 5706 5705 5703 5701 5700 5698 5697 5695 5694 5693 5692 5690 5689 5688
5729 5727 5726 5725 5723 5721 5720 5718 5717 5716 5714 5713 5712 5710 5709 5709 5708 5708 5707 5706 5705 5704 5703 5702 5702 5701 5700 5699 5697 5696 5695 5693 5691 5690 5688 5687 5686 5684 5683 5682 5680 5679 5678
5719 5717 5716 5714 5713 5711 5710 5708 5707 5706 5704 5703 5702 5701 5700 5699 5699 5698 5696 5695 5695 5694 5693 5692 5691 5691 5690 5688 5687 5686 5684 5683 5681 5680 5678 5677 5676 5674 5673 5672 5670 5669 5668
5709 5707 5706 5704 5703 5701 5700 5699 5697 5696 5695 5693 5692 5692 5691 5690 5689 5688 5687 5686 5685 5684 5683 5682 5681 5680 5679 5678 5677 5675 5674 5673 5671 5669 5667 5666 5665 5664 5663 5662 5660 5659 5658
5699 5698 5696 5695 5693 5692 5690 5690 5688 5687 5686 5685 5684 5683 5682 5681 5679 5678 5677 5676 5675 5674 5672 5671 5670 5669 5668 5667 5666 5665 5663 5662 5660 5659 5657 5656 5655 5653 5652 5651 5649 5648 5647